This is the latest recevied weather packets stored in our database for station/object BV5AB-13. If no packets are shown the sender has not sent any weather packets the latest 1 day(s).
| Time | Temp. | Humidity | Pressure | Rain* | Wind** | Luminosity | Snow |
|---|---|---|---|---|---|---|---|
| 1778001423 | 21.11° C | 97% | 1003.1 hPa | 3.05 mm | 0 m/s | - | - |
| 1778000823 | 21.11° C | 97% | 1002.8 hPa | 3.56 mm | 0.45 m/s, 70° | - | - |
| 1778000228 | 21.11° C | 97% | 1003 hPa | 4.06 mm | 0 m/s | - | - |
| 1777999624 | 21.11° C | 97% | 1003.3 hPa | 4.06 mm | 0 m/s | - | - |
| 1777999023 | 21.11° C | 96% | 1003.5 hPa | 3.56 mm | 0.45 m/s, 10° | - | - |
| 1777998424 | 21.11° C | 96% | 1003.6 hPa | 3.05 mm | 0 m/s | - | - |
| 1777997824 | 21.11° C | 96% | 1003.6 hPa | 1.52 mm | 1.79 m/s, 350° | - | - |
| 1777997223 | 21.67° C | 96% | 1003.7 hPa | 1.02 mm | 0.89 m/s, 320° | - | - |
| 1777996623 | 21.67° C | 97% | 1003.7 hPa | 1.02 mm | 0.89 m/s, 340° | - | - |
| 1777996023 | 21.67° C | 97% | 1003.8 hPa | 2.54 mm | 0.89 m/s, 330° | - | - |
| 1777995424 | 21.67° C | 98% | 1003.9 hPa | 3.05 mm | 0 m/s | - | - |
| 1777994824 | 21.11° C | 98% | 1003.9 hPa | 3.05 mm | 0 m/s | - | - |
| 1777994224 | 21.67° C | 98% | 1004.2 hPa | 4.57 mm | 0 m/s | - | - |
| 1777993623 | 21.67° C | 98% | 1004.4 hPa | 5.08 mm | 0 m/s | - | - |
| 1777993025 | 21.67° C | 97% | 1004.4 hPa | 5.08 mm | 0 m/s | - | - |
| 1777992423 | 21.67° C | 97% | 1004.7 hPa | 4.06 mm | 0 m/s | - | - |
| 1777991824 | 21.67° C | 97% | 1004.7 hPa | 3.56 mm | 0.45 m/s, 230° | - | - |
| 1777991224 | 21.11° C | 97% | 1004.6 hPa | 3.05 mm | 0.45 m/s, 220° | - | - |
| 1777990624 | 21.11° C | 97% | 1004.4 hPa | 2.03 mm | 0.45 m/s, 240° | - | - |
| 1777990023 | 21.11° C | 98% | 1004.2 hPa | 2.03 mm | 0.45 m/s, 250° | - | - |
| 1777989424 | 21.11° C | 98% | 1004 hPa | 2.03 mm | 0.45 m/s, 290° | - | - |
| 1777988824 | 21.67° C | 98% | 1003.8 hPa | 2.03 mm | 0 m/s | - | - |
| 1777988224 | 21.11° C | 98% | 1003.6 hPa | 2.54 mm | 0.45 m/s, 0° | - | - |
| 1777987625 | 21.11° C | 98% | 1003.8 hPa | 3.05 mm | 0 m/s | - | - |
| 1777987023 | 21.11° C | 98% | 1004 hPa | 3.05 mm | 0 m/s | - | - |
* Rain latest hour (hover to see other rain measurements)
** Current wind speed in m/s (hover to see current wind gust speed)